Preview of NWS' New Version of Forecast
This preview is not operational and should not be used for support decisions.

Regional Weather Roundup (RWR)

Issued by National Weather Service (NWS)

                            
000
ASUS43 KBIS 260610
RWRND 

NORTH DAKOTA REGIONAL WEATHER ROUNDUP
NATIONAL WEATHER SERVICE BISMARCK ND
100 AM CDT FRI APR 26 2019

NOTE: "FAIR" INDICATES FEW OR NO CLOUDS BELOW 12,000 FEET WITH NO
SIGNIFICANT WEATHER AND/OR OBSTRUCTIONS TO VISIBILITY.


NDZ001>003-009>011-017-260700-
NORTHWEST NORTH DAKOTA
  
CITY           SKY/WX    TMP DP  RH WIND       PRES   REMARKS
WILLISTON      CLEAR     32  14  47 CALM      30.16F                  
6HR MIN TEMP:  32; 6HR MAX TEMP:  55;                                

MINOT          CLEAR     35  21  56 SW8       30.14R                  
MINOT AFB      CLEAR     27  18  68 W8        30.13R WCI  19          
$$
 
NDZ018>021-031>035-040>046-260700-
SOUTHWEST NORTH DAKOTA
  
CITY           SKY/WX    TMP DP  RH WIND       PRES   REMARKS
BISMARCK       CLEAR     38  19  46 NW3       30.16S                  
6HR MIN TEMP:  38; 6HR MAX TEMP:  56;                                

DICKINSON      CLEAR     34  13  41 W6        30.16S                  
GARRISON         N/A     27  17  66 CALM      30.14S                  
6HR MIN TEMP:  27; 6HR MAX TEMP:  53;                                

HETTINGER ARPT CLEAR     26  17  68 CALM      30.20S                  
$$
 
NDZ004>008-012>016-024-026-027-054-260700-
NORTHEAST NORTH DAKOTA
  
CITY           SKY/WX    TMP DP  RH WIND       PRES   REMARKS
GRAND FORKS    CLEAR     32  28  85 W9        30.06S                  
GRND FRKS AFB  CLEAR     36  30  80 NW6       30.10R                  
DEVILS LAKE    PTCLDY    33  27  78 NW8       30.10S                  
$$
 
NDZ022-023-025-028>030-036>039-047>053-260700-
SOUTHEAST NORTH DAKOTA
  
CITY           SKY/WX    TMP DP  RH WIND       PRES   REMARKS
FARGO          CLEAR     39  33  79 NW8       30.08R                  
6HR MIN TEMP:  39; 6HR MAX TEMP:  57;                                

JAMESTOWN      CLEAR     37  27  67 W8        30.10R                  
$$